| time (UTC) | temp F | wind direction | speed knots | gust knots | rain 1hr in | rain 24hr in | rain mn in | humidity % | barometer mb |
| 20260502190021 | 89 | 65 | 7.0 | 0.0 | 0.00 | 0.00 | 0.00 | 8 | 1008.5 |
| 20260502184529 | 88 | 140 | 5.2 | 0.0 | 0.00 | 0.00 | 0.00 | 8 | 1008.7 |
| 20260502183034 | 88 | 51 | 4.3 | 0.0 | 0.00 | 0.00 | 0.00 | 9 | 1009.0 |
| 20260502181517 | 88 | 131 | 3.5 | 0.0 | 0.00 | 0.00 | 0.00 | 9 | 1009.2 |
| 20260502163017 | 87 | 358 | 0.9 | 0.0 | 0.00 | 0.00 | 0.00 | 11 | 1009.4 |
| 20260502161508 | 87 | 40 | 0.9 | 0.0 | 0.00 | 0.00 | 0.00 | 11 | 1009.5 |
| 20260502151603 | 79 | 305 | 3.5 | 0.0 | 0.00 | 0.00 | 0.00 | 19 | 1009.5 |
| 20260502123041 | 70 | 294 | 4.3 | 0.0 | 0.00 | 0.00 | 0.00 | 26 | 1008.0 |
| 20260502121535 | 69 | 282 | 3.5 | 0.0 | 0.00 | 0.00 | 0.00 | 27 | 1007.9 |
| 20260502114530 | 70 | 273 | 3.5 | 0.0 | 0.00 | 0.00 | 0.00 | 26 | 1007.8 |
| 20260502113030 | 71 | 275 | 3.5 | 0.0 | 0.00 | 0.00 | 0.00 | 26 | 1007.7 |
| 20260502111529 | 71 | 289 | 1.7 | 0.0 | 0.00 | 0.00 | 0.00 | 26 | 1007.7 |
| 20260502110031 | 70 | 260 | 3.5 | 0.0 | 0.00 | 0.00 | 0.00 | 27 | 1007.6 |
| 20260502104526 | 71 | 292 | 2.6 | 0.0 | 0.00 | 0.00 | 0.00 | 26 | 1007.6 |
| 20260502103032 | 72 | 227 | 4.3 | 0.0 | 0.00 | 0.00 | 0.00 | 26 | 1007.5 |
| 20260502101541 | 71 | 298 | 5.2 | 0.0 | 0.00 | 0.00 | 0.00 | 27 | 1007.6 |
| 20260502091514 | 74 | 222 | 1.7 | 0.0 | 0.00 | 0.00 | 0.00 | 24 | 1007.3 |
| 20260502070118 | 75 | 75 | 1.7 | 0.0 | 0.00 | 0.00 | 0.00 | 32 | 1007.8 |
| 20260502064558 | 75 | 143 | 3.5 | 0.0 | 0.00 | 0.00 | 0.00 | 31 | 1007.7 |
| 20260502063059 | 78 | 138 | 1.7 | 0.0 | 0.00 | 0.00 | 0.00 | 28 | 1007.6 |
| 20260502061603 | 79 | 274 | 0.9 | 0.0 | 0.00 | 0.00 | 0.00 | 26 | 1007.4 |
| 20260502060055 | 80 | 254 | 2.6 | 0.0 | 0.00 | 0.00 | 0.00 | 26 | 1007.3 |
| 20260502054558 | 80 | 259 | 2.6 | 0.0 | 0.00 | 0.00 | 0.00 | 27 | 1007.3 |
| 20260502053054 | 80 | 248 | 1.7 | 0.0 | 0.00 | 0.00 | 0.00 | 27 | 1007.3 |
| 20260502051620 | 80 | 280 | 3.5 | 0.0 | 0.00 | 0.00 | 0.00 | 26 | 1007.2 |
| 20260502050057 | 81 | 260 | 1.7 | 0.0 | 0.00 | 0.00 | 0.00 | 27 | 1007.3 |
| 20260502044552 | 81 | 7 | 1.7 | 0.0 | 0.00 | 0.00 | 0.00 | 23 | 1007.2 |
| 20260502043057 | 82 | 282 | 1.7 | 0.0 | 0.00 | 0.00 | 0.00 | 19 | 1007.1 |
| 20260502041551 | 83 | 254 | 4.3 | 0.0 | 0.00 | 0.00 | 0.00 | 17 | 1006.8 |
| 20260502040057 | 84 | 280 | 7.0 | 0.0 | 0.00 | 0.00 | 0.00 | 16 | 1006.7 |
| 20260502034550 | 84 | 273 | 6.1 | 0.0 | 0.00 | 0.00 | 0.00 | 16 | 1006.5 |
| 20260502033050 | 84 | 286 | 7.0 | 0.0 | 0.00 | 0.00 | 0.00 | 15 | 1006.3 |
| 20260502031548 | 85 | 260 | 8.7 | 0.0 | 0.00 | 0.00 | 0.00 | 15 | 1006.1 |
| 20260502030052 | 85 | 269 | 7.8 | 0.0 | 0.00 | 0.00 | 0.00 | 14 | 1005.8 |
| 20260502024549 | 85 | 256 | 9.6 | 0.0 | 0.00 | 0.00 | 0.00 | 14 | 1005.7 |
| 20260502023059 | 86 | 254 | 8.7 | 0.0 | 0.00 | 0.00 | 0.00 | 15 | 1005.5 |
| 20260502021546 | 86 | 252 | 8.7 | 0.0 | 0.00 | 0.00 | 0.00 | 14 | 1005.4 |
| 20260502014549 | 88 | 304 | 8.7 | 0.0 | 0.00 | 0.00 | 0.00 | 14 | 1005.2 |
| 20260502013059 | 89 | 285 | 7.8 | 0.0 | 0.00 | 0.00 | 0.00 | 14 | 1005.1 |
| 20260502011545 | 89 | 263 | 8.7 | 0.0 | 0.00 | 0.00 | 0.00 | 14 | 1005.1 |
| 20260502010044 | 90 | 266 | 7.8 | 0.0 | 0.00 | 0.00 | 0.00 | 14 | 1004.9 |
| 20260502004550 | 91 | 303 | 4.3 | 0.0 | 0.00 | 0.00 | 0.00 | 14 | 1004.9 |
| 20260502003042 | 90 | 347 | 4.3 | 0.0 | 0.00 | 0.00 | 0.00 | 12 | 1004.9 |
| 20260502001601 | 91 | 84 | 2.6 | 0.0 | 0.00 | 0.00 | 0.00 | 11 | 1004.9 |
| 20260502000040 | 90 | 45 | 3.5 | 0.0 | 0.00 | 0.00 | 0.00 | 12 | 1005.0 |
| 20260501234539 | 91 | 71 | 5.2 | 0.0 | 0.00 | 0.00 | 0.00 | 12 | 1005.0 |
| 20260501233044 | 91 | 75 | 3.5 | 0.0 | 0.00 | 0.00 | 0.00 | 12 | 1005.1 |
| 20260501231537 | 91 | 139 | 2.6 | 0.0 | 0.00 | 0.00 | 0.00 | 12 | 1005.2 |
| 20260501230038 | 90 | 74 | 3.5 | 0.0 | 0.00 | 0.00 | 0.00 | 12 | 1005.5 |
| 20260501224534 | 90 | 106 | 3.5 | 0.0 | 0.00 | 0.00 | 0.00 | 12 | 1005.7 |
| 20260501223034 | 90 | 84 | 4.3 | 0.0 | 0.00 | 0.00 | 0.00 | 12 | 1005.8 |
| 20260501221533 | 90 | 112 | 6.1 | 0.0 | 0.00 | 0.00 | 0.00 | 12 | 1006.0 |
| 20260501220059 | 90 | 29 | 6.1 | 0.0 | 0.00 | 0.00 | 0.00 | 12 | 1006.3 |
| 20260501214535 | 90 | 176 | 5.2 | 0.0 | 0.00 | 0.00 | 0.00 | 12 | 1006.6 |
| 20260501213031 | 90 | 70 | 3.5 | 0.0 | 0.00 | 0.00 | 0.00 | 12 | 1006.8 |
| 20260501211529 | 89 | 48 | 6.1 | 0.0 | 0.00 | 0.00 | 0.00 | 13 | 1007.0 |
| 20260501210032 | 89 | 94 | 3.5 | 0.0 | 0.00 | 0.00 | 0.00 | 13 | 1007.1 |
| 20260501204533 | 89 | 75 | 6.1 | 0.0 | 0.00 | 0.00 | 0.00 | 13 | 1007.3 |
| 20260501203032 | 89 | 73 | 7.0 | 0.0 | 0.00 | 0.00 | 0.00 | 14 | 1007.4 |
| 20260501201534 | 88 | 27 | 5.2 | 0.0 | 0.00 | 0.00 | 0.00 | 14 | 1007.4 |
| 20260501200022 | 88 | 325 | 4.3 | 0.0 | 0.00 | 0.00 | 0.00 | 14 | 1007.6 |
| 20260501194522 | 88 | 42 | 6.1 | 0.0 | 0.00 | 0.00 | 0.00 | 14 | 1007.8 |
| 20260501193030 | 87 | 79 | 5.2 | 0.0 | 0.00 | 0.00 | 0.00 | 15 | 1007.9 |
| 20260501191517 | 87 | 31 | 5.2 | 0.0 | 0.00 | 0.00 | 0.00 | 14 | 1008.1 |